Volver al catálogo

FENGYUN 1C DEB

ActivoPO
NORAD 29899·DEBRIS·🇨🇳 China

Lanzado May 10, 1999 desde Taiyuan Satellite Launch Center

Loading…

Próximos Pases (próximas 24 horas)

TLE

ActualizadoSource: Space-Track

Época: Sep 13, 2026, 07:30 UTC

1 29899U 99025GV  26256.31309561  .00000018  00000-0  66510-4 0  9992
2 29899  98.7025  17.1750 0353777 108.7987 255.1863 13.37578254957559

Sigue FENGYUN 1C DEB en tiempo real con AllMySat

Download on the App Store